Location: �terpigny
(49.8910°N, 2.9249°E)
Time: 10:22:42
(UTC+00:00)

EO-88 - Pass Details

Date: 03 July 2022
Orbit: 453 x 461 km, 97.3° (Epoch: 13 August)

Event Time Altitude Azimuth Distance (km) Brightness Sun altitude
Exits shadow 20:50:59 - 154° (SSE) 1,774 ? -6.8°
Reaches altitude 10° 20:51:20 10° 153° (SSE) 1,625 ? -6.9°
Maximum altitude 20:54:46 60° 74° (ENE) 544 ? -7.2°
Drops below altitude 10° 20:58:14 10° 354° (N) 1,635 ? -7.6°
Sets 21:00:19 0° 351° (N) 2,515 ? -7.8°
